Location: Unspecified
(0.0000°N, 0.0000°E)
Time: 03:43:56
(UTC+00:00)

Envisat - Pass Details

Date: 24 November 2017
Orbit: 764 x 766 km, 98.2° (Epoch: 12 December)

Event Time Altitude Azimuth Distance (km) Brightness Sun altitude
Rises 20:19:19 0° 175° (S) 3,232 6.5 -35.3°
Reaches altitude 10° 20:21:39 10° 178° (S) 2,304 5.7 -35.8°
Enters shadow 20:21:43 10° 178° (S) 2,276 5.7 -35.8°
